Big Piney, WY

8:12 PM MDT on April 26, 2018 (GMT -0600)
Big Piney-Marbleton

Weather History for KBPI - October, 2012

Change the Weather History Date:

Sunday, October 28, 2012

  Actual Average Record
Temperature  
Mean Temperature 40 °F 33 °F  
Max Temperature 55 °F 49 °F 67 °F (2008)
Min Temperature 25 °F 17 °F 6 °F (1976)
Degree Days  
Heating Degree Days 25 32  
Month to date heating degree days 693 732  
Since 1 July heating degree days 1064 1483  
Cooling Degree Days 0 0  
Month to date cooling degree days 0 0  
Year to date cooling degree days 67 35  
Moisture  
Dew Point 30 °F    
Average Humidity 67    
Maximum Humidity 92    
Minimum Humidity 41    
Precipitation  
Precipitation T in 0.01 in 0.51 in (1992)
Month to date precipitation 0.24 0.50  
Year to date precipitation 2.50 5.94  
Sea Level Pressure  
Sea Level Pressure 30.10 in    
Wind  
Wind Speed 5 mph (NNW)    
Max Wind Speed 22 mph    
Max Gust Speed 37 mph    
Visibility 10 miles    
Events      
T = Trace of Precipitation, MM = Missing Value Source: NWS Daily Summary

Daily Weather History Graph

Daily Weather History Graph

Search for Another Location

Airport or City:

Astronomy

Oct. 28, 2012 Rise Set
Actual Time 7:49 AM MDT 6:17 PM MDT
Civil Twilight 7:20 AM MDT 6:46 PM MDT
Nautical Twilight 6:47 AM MDT 7:20 PM MDT
Astronomical Twilight 6:14 AM MDT 7:52 PM MDT
Moon 5:37 PM MDT (10/28) 6:45 AM MDT (10/28)
Length of Visible Light 11h 26m
Length of Day
10h 27m
Waxing Gibbous, 99% of the Moon is Illuminated
Oct 28
Waxing Gibbous
Oct 29
Full
Nov 6
Last Quarter
Nov 13
New
Nov 20
First Quarter

Hourly Weather History & Observations

Time (MDT) Temp. Windchill Dew Point Humidity Pressure Visibility Wind Dir Wind Speed Gust Speed Precip Events Conditions
12:53 AM 27.0 °F - 24.1 °F 89% 30.12 in 10.0 mi Calm Calm - N/A   Clear
1:53 AM 27.0 °F - 24.1 °F 89% 30.12 in 10.0 mi Calm Calm - N/A   Mostly Cloudy
2:53 AM 26.1 °F - 23.0 °F 88% 30.11 in 10.0 mi Calm Calm - N/A   Scattered Clouds
3:53 AM 27.0 °F 21.6 °F 25.0 °F 92% 30.11 in 10.0 mi WNW 4.6 mph - N/A   Mostly Cloudy
4:53 AM 28.0 °F 21.7 °F 25.0 °F 88% 30.11 in 10.0 mi North 5.8 mph - N/A   Scattered Clouds
5:53 AM 27.0 °F - 25.0 °F 92% 30.13 in 10.0 mi Calm Calm - N/A   Mostly Cloudy
6:53 AM 26.1 °F - 24.1 °F 92% 30.15 in 10.0 mi Calm Calm - N/A   Mostly Cloudy
7:53 AM 28.0 °F 22.8 °F 26.1 °F 92% 30.13 in 10.0 mi ENE 4.6 mph - N/A   Overcast
8:53 AM 33.1 °F - 28.9 °F 85% 30.14 in 10.0 mi Calm Calm - 0.00 in   Mostly Cloudy
9:01 AM 32.0 °F - 28.4 °F 87% 30.16 in 10.0 mi Calm Calm - N/A   Mostly Cloudy
9:53 AM 35.1 °F 31.0 °F 30.9 °F 85% 30.13 in 10.0 mi NW 4.6 mph - N/A   Clear
10:53 AM 39.0 °F 36.8 °F 30.9 °F 73% 30.11 in 10.0 mi West 3.5 mph - N/A   Clear
11:53 AM 44.1 °F 40.8 °F 33.1 °F 65% 30.09 in 10.0 mi ESE 5.8 mph - N/A   Clear
12:53 PM 48.0 °F - 34.0 °F 58% 30.06 in 10.0 mi South 5.8 mph - N/A   Clear
1:53 PM 53.1 °F - 34.0 °F 48% 30.04 in 10.0 mi Variable 3.5 mph - N/A   Mostly Cloudy
2:44 PM 55.4 °F - 32.0 °F 41% 30.13 in 10.0 mi NW 21.9 mph 28.8 mph N/A   Clear
2:53 PM 55.0 °F - 32.0 °F 42% 30.03 in 10.0 mi NW 21.9 mph 27.6 mph N/A   Clear
3:53 PM 51.1 °F - 30.9 °F 46% 30.06 in 10.0 mi WNW 15.0 mph - N/A   Scattered Clouds
4:53 PM 51.1 °F - 34.0 °F 52% 30.05 in 10.0 mi North 15.0 mph - N/A   Overcast
5:53 PM 48.0 °F - 33.1 °F 56% 30.09 in 10.0 mi North 8.1 mph - N/A   Mostly Cloudy
6:53 PM 46.0 °F 44.8 °F 33.1 °F 61% 30.11 in 10.0 mi North 3.5 mph - N/A   Overcast
7:53 PM 46.0 °F 44.8 °F 34.0 °F 63% 30.10 in 10.0 mi Variable 3.5 mph - N/A   Overcast
8:53 PM 44.1 °F - 35.1 °F 71% 30.09 in 10.0 mi Calm Calm - N/A   Overcast
9:53 PM 46.0 °F - 34.0 °F 63% 30.07 in 10.0 mi Calm Calm - N/A   Overcast
10:53 PM 45.0 °F - 34.0 °F 65% 30.08 in 10.0 mi Calm Calm - N/A   Overcast
11:53 PM 42.1 °F 38.4 °F 35.1 °F 76% 30.06 in 10.0 mi ENE 5.8 mph - N/A   Overcast